Showing default

COSMOS 489, 6019

Orbit data source: Space-Track

COSMOS 489, 6019 is a payload satellite owned by OKB-10 (CIS) in LEO that was launched on Sat, 06 May 1972 UTC via a KOSMOS 11K65M launch vehicle from the Plesetsk Missile And Space Complex (PKMTR). Payload-class satellites include a variety of spacecraft equipped with specific instruments for various scientific and technological missions. These include communications satellites like Starlink; space stations such as the ISS; scientific satellites like the Hubble; Earth observation satellites from companies like Planet Labs, Umbra, and HawkEye 360; GPS; miniature CubeSats for education and research; and military/defense satellites.

Loading next visibility...
Identifier
6019, 1972-035A
Orbit
LEO
Last TLE update
3 hours ago
Origin
Manufacturer
Omsk Av. Zav.
Mission
Defense Navigation
Bus & Motor
KAUR-1 11F617, Unknown motor
Mass
680 kg wet, 680 kg dry
Launch date (UTC)
1972-05-06 (53 years ago)
Launch vehicle
KOSMOS 11K65M
Launch site
Plesetsk Missile And Space Complex (PKMTR)
Object type
Payload
Rocket body
Debris
Shape & HBR
Cyl, 5 m
Radar Cross Section
9.978 m², Large (>1 m²)

Expand to show TLE details & history

TLE from 3 hours ago
0 COSMOS 489
1  6019U 72035A   25163.55308296  .00000037  00000-0  61139-4 0  9992
2  6019  74.0194 221.3058 0025111 240.9981 223.4518 13.76116961666326
Epoch: 2025-06-12T13:16Z
TLE epoch observation values (Epoch: 2025-06-12T13:16:26.367Z)
Latitude
68.80089°
Longitude
-106.19188°
Altitude
1,002.669 km
Speed
7.35 km/s
True Right ascension
23h 36m 09s
True Declination
68° 41' 19"
Sunlit
Object was in daylight at epoch
Visualization orbit readout
Latitude
-47.83998°
Longitude
102.54784°
Altitude
989.184 km
Speed
7.36 km/s
Apparent Right ascension
13h 58m 00s
Apparent Declination
-44° 11' 11"
Sunlit
Object is in full shadow
Visualization observer readout
Local Sidereal Time
02:25:12
Azimuth
132.461° SE
Elevation
-83.391°
Doppler factor
1
Orbital elements
Apogee altitude
993.849 km
Perigee altitude
956.918 km
Semi-major axis
7,353.521 km
Eccentricity
0.00251
Inclination
74.0194°
RAAN
221.3058°
Arg. of periapsis
240.9981°
True anomaly
Unknown
Mean anomaly
223.4518°
Eccentric anomaly
Unknown
Mean motion
3.44192 °/min
Orbital period
104.59 mins
BSTAR
0.000061139
Loading maneuver chart data...
Loading SW <> Apogee altitude chart data...
Loading historical data...
Loading historical data...
Loading historical data...
Loading historical data...
Loading historical data...
Loading historical data...
Loading historical data...
Other satellites on launch #35 in the year 1972 (1972-05-06 UTC)

COSMOS 489 Visibility forecast

Observer location: undefined°, undefined°

Span
Click to sort rows by Start time (UTC) header in descending order
Start Az.
Max El. time (UTC)
Max El. Az.
Max El.
End time (UTC)
End Az.
6 mins2025-06-12 16:53:45.439Z296.562° NW2025-06-12 16:56:45.439Z265.217° W16.029°2025-06-12 16:59:45.439Z234.533° WSW
11 mins2025-06-13 04:34:45.439Z175.621° S2025-06-13 04:39:45.439Z108.375° ESE38.954°2025-06-13 04:45:45.439Z28.968° NE
9 mins2025-06-13 06:22:45.439Z254.087° W2025-06-13 06:26:45.439Z299.763° NW23.177°2025-06-13 06:31:45.439Z354.208° N
7 mins2025-06-13 13:46:45.439Z20.825° NNE2025-06-13 13:49:45.439Z56.482° ENE20.84°2025-06-13 13:53:45.439Z101.023° ESE
11 mins2025-06-13 15:31:45.439Z331.903° NNW2025-06-13 15:36:45.439Z262.279° W41.214°2025-06-13 15:42:45.439Z177.697° S
|